| time (UTC) | temp C | wind direction | speed KPH | gust KPH | rain 1hr cm | rain 24hr cm | rain mn cm | humidity % | barometer mb |
| 20260906182306 | 38 | 282 | 4.8 | 9.7 | 0.00 | 0.00 | 0.00 | 36 | 1013.4 |
| 20260906181804 | 38 | 54 | 1.6 | 8.0 | 0.00 | 0.00 | 0.00 | 38 | 1013.5 |
| 20260906181303 | 37 | 304 | 3.2 | 14.5 | 0.00 | 0.00 | 0.00 | 38 | 1013.6 |
| 20260906180804 | 37 | 154 | 8.0 | 14.5 | 0.00 | 0.00 | 0.00 | 38 | 1013.7 |
| 20260906175803 | 36 | 138 | 8.0 | 11.3 | 0.00 | 0.00 | 0.00 | 39 | 1014.0 |
| 20260906175306 | 36 | 118 | 4.8 | 11.3 | 0.00 | 0.00 | 0.00 | 39 | 1014.0 |
| 20260906174803 | 36 | 44 | 4.8 | 8.0 | 0.00 | 0.00 | 0.00 | 40 | 1014.1 |
| 20260906174304 | 36 | 126 | 1.6 | 9.7 | 0.00 | 0.00 | 0.00 | 40 | 1014.3 |
| 20260906173803 | 36 | 67 | 4.8 | 11.3 | 0.00 | 0.00 | 0.00 | 40 | 1014.3 |
| 20260906173304 | 36 | 118 | 8.0 | 11.3 | 0.00 | 0.00 | 0.00 | 39 | 1014.4 |
| 20260906172804 | 37 | 33 | 4.8 | 11.3 | 0.00 | 0.00 | 0.00 | 40 | 1014.5 |
| 20260906171804 | 37 | 162 | 4.8 | 12.9 | 0.00 | 0.00 | 0.00 | 39 | 1014.5 |
| 20260906170803 | 37 | 143 | 6.4 | 14.5 | 0.00 | 0.00 | 0.00 | 40 | 1014.6 |
| 20260906165803 | 37 | 189 | 1.6 | 9.7 | 0.00 | 0.00 | 0.00 | 39 | 1014.8 |
| 20260906165306 | 36 | 119 | 8.0 | 12.9 | 0.00 | 0.00 | 0.00 | 41 | 1014.8 |
| 20260906164803 | 36 | 64 | 9.7 | 12.9 | 0.00 | 0.00 | 0.00 | 41 | 1014.9 |
| 20260906164304 | 36 | 103 | 4.8 | 11.3 | 0.00 | 0.00 | 0.00 | 42 | 1014.9 |
| 20260906163804 | 36 | 92 | 4.8 | 9.7 | 0.00 | 0.00 | 0.00 | 42 | 1015.0 |
| 20260906163304 | 36 | 162 | 4.8 | 9.7 | 0.00 | 0.00 | 0.00 | 43 | 1015.1 |
| 20260906162804 | 35 | 78 | 3.2 | 11.3 | 0.00 | 0.00 | 0.00 | 43 | 1015.0 |
| 20260906162306 | 35 | 97 | 8.0 | 12.9 | 0.00 | 0.00 | 0.00 | 44 | 1015.0 |
| 20260906161303 | 35 | 57 | 8.0 | 14.5 | 0.00 | 0.00 | 0.00 | 46 | 1015.0 |
| 20260906160804 | 35 | 118 | 4.8 | 11.3 | 0.00 | 0.00 | 0.00 | 45 | 1015.0 |
| 20260906160304 | 35 | 116 | 4.8 | 11.3 | 0.00 | 0.00 | 0.00 | 45 | 1015.0 |
| 20260906155306 | 34 | 124 | 8.0 | 11.3 | 0.00 | 0.00 | 0.00 | 46 | 1015.0 |
| 20260906154803 | 34 | 98 | 6.4 | 11.3 | 0.00 | 0.00 | 0.00 | 47 | 1015.0 |
| 20260906154304 | 33 | 122 | 8.0 | 12.9 | 0.00 | 0.00 | 0.00 | 48 | 1015.0 |
| 20260906153803 | 33 | 93 | 8.0 | 11.3 | 0.00 | 0.00 | 0.00 | 48 | 1015.0 |
| 20260906152804 | 33 | 129 | 8.0 | 11.3 | 0.00 | 0.00 | 0.00 | 50 | 1015.0 |
| 20260906152306 | 33 | 81 | 8.0 | 11.3 | 0.00 | 0.00 | 0.00 | 49 | 1015.0 |
| 20260906151804 | 33 | 102 | 8.0 | 12.9 | 0.00 | 0.00 | 0.00 | 50 | 1014.9 |
| 20260906151304 | 33 | 70 | 8.0 | 14.5 | 0.00 | 0.00 | 0.00 | 51 | 1014.9 |
| 20260906150804 | 33 | 85 | 4.8 | 11.3 | 0.00 | 0.00 | 0.00 | 51 | 1014.9 |
| 20260906150303 | 32 | 161 | 4.8 | 9.7 | 0.00 | 0.00 | 0.00 | 51 | 1014.9 |
| 20260906145804 | 32 | 107 | 3.2 | 11.3 | 0.00 | 0.00 | 0.00 | 52 | 1014.9 |
| 20260906145306 | 32 | 71 | 4.8 | 9.7 | 0.00 | 0.00 | 0.00 | 52 | 1014.9 |
| 20260906144804 | 32 | 102 | 6.4 | 11.3 | 0.00 | 0.00 | 0.00 | 52 | 1014.9 |
| 20260906144304 | 31 | 134 | 4.8 | 9.7 | 0.00 | 0.00 | 0.00 | 54 | 1014.9 |
| 20260906143803 | 31 | 64 | 4.8 | 9.7 | 0.00 | 0.00 | 0.00 | 55 | 1014.9 |
| 20260906142803 | 31 | 70 | 8.0 | 9.7 | 0.00 | 0.00 | 0.00 | 56 | 1014.9 |
| 20260906142306 | 31 | 70 | 4.8 | 9.7 | 0.00 | 0.00 | 0.00 | 56 | 1014.9 |
| 20260906141304 | 30 | 81 | 4.8 | 9.7 | 0.00 | 0.00 | 0.00 | 58 | 1015.0 |
| 20260906140303 | 30 | 60 | 4.8 | 9.7 | 0.00 | 0.00 | 0.00 | 61 | 1014.9 |
| 20260906135804 | 29 | 43 | 4.8 | 11.3 | 0.00 | 0.00 | 0.00 | 62 | 1014.8 |
| 20260906134303 | 28 | 56 | 4.8 | 9.7 | 0.00 | 0.00 | 0.00 | 64 | 1014.8 |
| 20260906133804 | 28 | 59 | 4.8 | 8.0 | 0.00 | 0.00 | 0.00 | 64 | 1014.8 |
| 20260906133304 | 28 | 52 | 4.8 | 9.7 | 0.00 | 0.00 | 0.00 | 65 | 1014.7 |
| 20260906132804 | 28 | 71 | 4.8 | 12.9 | 0.00 | 0.00 | 0.00 | 66 | 1014.7 |
| 20260906132306 | 28 | 63 | 4.8 | 9.7 | 0.00 | 0.00 | 0.00 | 66 | 1014.6 |
| 20260906131304 | 27 | 39 | 3.2 | 4.8 | 0.00 | 0.00 | 0.00 | 69 | 1014.6 |
| 20260906130804 | 27 | 61 | 3.2 | 8.0 | 0.00 | 0.00 | 0.00 | 70 | 1014.6 |
| 20260906130304 | 26 | 55 | 4.8 | 11.3 | 0.00 | 0.00 | 0.00 | 70 | 1014.5 |
| 20260906125803 | 26 | 57 | 6.4 | 11.3 | 0.00 | 0.00 | 0.00 | 71 | 1014.4 |
| 20260906125306 | 26 | 53 | 8.0 | 9.7 | 0.00 | 0.00 | 0.00 | 71 | 1014.4 |
| 20260906124804 | 26 | 58 | 6.4 | 9.7 | 0.00 | 0.00 | 0.00 | 72 | 1014.3 |
| 20260906124303 | 26 | 66 | 3.2 | 4.8 | 0.00 | 0.00 | 0.00 | 72 | 1014.3 |
| 20260906123804 | 25 | 56 | 3.2 | 4.8 | 0.00 | 0.00 | 0.00 | 73 | 1014.3 |
| 20260906123304 | 25 | 48 | 3.2 | 4.8 | 0.00 | 0.00 | 0.00 | 74 | 1014.2 |
| 20260906122803 | 25 | 33 | 3.2 | 4.8 | 0.00 | 0.00 | 0.00 | 74 | 1014.2 |
| 20260906122306 | 25 | 44 | 1.6 | 3.2 | 0.00 | 0.00 | 0.00 | 74 | 1014.1 |
| 20260906121808 | 25 | 48 | 4.8 | 8.0 | 0.00 | 0.00 | 0.00 | 74 | 1013.9 |
| 20260906120803 | 24 | 58 | 4.8 | 8.0 | 0.00 | 0.00 | 0.00 | 74 | 1013.8 |
| 20260906120304 | 24 | 39 | 3.2 | 4.8 | 0.00 | 0.00 | 0.00 | 76 | 1013.7 |
| 20260906115804 | 24 | 46 | 3.2 | 3.2 | 0.00 | 0.00 | 0.00 | 77 | 1013.7 |
| 20260906115306 | 24 | 28 | 0.0 | 3.2 | 0.00 | 0.00 | 0.00 | 77 | 1013.7 |
| 20260906114804 | 24 | 46 | 1.6 | 3.2 | 0.00 | 0.00 | 0.00 | 77 | 1013.6 |
| 20260906114303 | 24 | 39 | 1.6 | 3.2 | 0.00 | 0.00 | 0.00 | 77 | 1013.6 |
| 20260906113303 | 23 | 36 | 3.2 | 4.8 | 0.00 | 0.00 | 0.00 | 78 | 1013.6 |
| 20260906112803 | 23 | 44 | 3.2 | 4.8 | 0.00 | 0.00 | 0.00 | 78 | 1013.7 |
| 20260906112306 | 24 | 29 | 0.0 | 3.2 | 0.00 | 0.00 | 0.00 | 78 | 1013.7 |
| 20260906111304 | 24 | 27 | 0.0 | 0.0 | 0.00 | 0.00 | 0.00 | 76 | 1013.7 |
| 20260906110304 | 25 | 27 | 1.6 | 3.2 | 0.00 | 0.00 | 0.00 | 75 | 1013.7 |
| 20260906105803 | 25 | 32 | 1.6 | 3.2 | 0.00 | 0.00 | 0.00 | 75 | 1013.7 |
| 20260906105306 | 25 | 37 | 1.6 | 3.2 | 0.00 | 0.00 | 0.00 | 75 | 1013.7 |
| 20260906104804 | 25 | 19 | 1.6 | 3.2 | 0.00 | 0.00 | 0.00 | 74 | 1013.7 |
| 20260906104304 | 25 | 31 | 3.2 | 4.8 | 0.00 | 0.00 | 0.00 | 74 | 1013.7 |
| 20260906103803 | 25 | 36 | 3.2 | 4.8 | 0.00 | 0.00 | 0.00 | 74 | 1013.7 |
| 20260906103303 | 25 | 32 | 3.2 | 4.8 | 0.00 | 0.00 | 0.00 | 74 | 1013.6 |
| 20260906102306 | 24 | 46 | 3.2 | 4.8 | 0.00 | 0.00 | 0.00 | 76 | 1013.6 |
| 20260906101803 | 24 | 35 | 3.2 | 3.2 | 0.00 | 0.00 | 0.00 | 76 | 1013.6 |
| 20260906100804 | 25 | 48 | 1.6 | 3.2 | 0.00 | 0.00 | 0.00 | 76 | 1013.6 |
| 20260906095804 | 25 | 29 | 1.6 | 3.2 | 0.00 | 0.00 | 0.00 | 76 | 1013.5 |
| 20260906095306 | 25 | 41 | 3.2 | 3.2 | 0.00 | 0.00 | 0.00 | 76 | 1013.5 |
| 20260906094303 | 25 | 42 | 0.0 | 3.2 | 0.00 | 0.00 | 0.00 | 75 | 1013.5 |
| 20260906093804 | 25 | 24 | 0.0 | 3.2 | 0.00 | 0.00 | 0.00 | 75 | 1013.5 |
| 20260906093303 | 25 | 22 | 0.0 | 1.6 | 0.00 | 0.00 | 0.00 | 75 | 1013.5 |
| 20260906092803 | 25 | 49 | 3.2 | 4.8 | 0.00 | 0.00 | 0.00 | 75 | 1013.5 |
| 20260906092306 | 25 | 27 | 1.6 | 3.2 | 0.00 | 0.00 | 0.00 | 74 | 1013.3 |
| 20260906091304 | 25 | 45 | 1.6 | 3.2 | 0.00 | 0.00 | 0.00 | 74 | 1013.3 |
| 20260906090804 | 25 | 39 | 1.6 | 3.2 | 0.00 | 0.00 | 0.00 | 73 | 1013.3 |
| 20260906090304 | 25 | 42 | 3.2 | 4.8 | 0.00 | 0.00 | 0.00 | 73 | 1013.2 |
| 20260906085803 | 26 | 37 | 1.6 | 3.2 | 0.00 | 0.00 | 0.00 | 72 | 1013.2 |
| 20260906085306 | 26 | 41 | 1.6 | 3.2 | 0.00 | 0.00 | 0.00 | 72 | 1013.2 |
| 20260906084804 | 26 | 36 | 1.6 | 3.2 | 0.00 | 0.00 | 0.00 | 71 | 1013.2 |
| 20260906084304 | 26 | 46 | 0.0 | 1.6 | 0.00 | 0.00 | 0.00 | 69 | 1013.2 |
| 20260906083804 | 26 | 39 | 1.6 | 4.8 | 0.00 | 0.00 | 0.00 | 69 | 1013.2 |
| 20260906082804 | 26 | 48 | 1.6 | 3.2 | 0.00 | 0.00 | 0.00 | 68 | 1013.2 |
| 20260906082306 | 27 | 40 | 3.2 | 4.8 | 0.00 | 0.00 | 0.00 | 68 | 1013.2 |
| 20260906081803 | 27 | 46 | 3.2 | 4.8 | 0.00 | 0.00 | 0.00 | 67 | 1013.2 |
| 20260906081304 | 27 | 38 | 3.2 | 4.8 | 0.00 | 0.00 | 0.00 | 67 | 1013.2 |
| 20260906080804 | 27 | 46 | 3.2 | 4.8 | 0.00 | 0.00 | 0.00 | 67 | 1013.1 |
| 20260906080303 | 27 | 44 | 3.2 | 4.8 | 0.00 | 0.00 | 0.00 | 67 | 1013.1 |
| 20260906075804 | 27 | 44 | 3.2 | 8.0 | 0.00 | 0.00 | 0.00 | 67 | 1013.0 |
| 20260906074804 | 27 | 45 | 3.2 | 8.0 | 0.00 | 0.00 | 0.00 | 67 | 1013.0 |
| 20260906074304 | 27 | 44 | 4.8 | 8.0 | 0.00 | 0.00 | 0.00 | 67 | 1013.1 |
| 20260906073804 | 27 | 41 | 4.8 | 8.0 | 0.00 | 0.00 | 0.00 | 67 | 1013.0 |
| 20260906073303 | 27 | 45 | 3.2 | 4.8 | 0.00 | 0.00 | 0.00 | 66 | 1013.0 |
| 20260906072804 | 27 | 43 | 4.8 | 4.8 | 0.00 | 0.00 | 0.00 | 66 | 1013.0 |
| 20260906072306 | 27 | 42 | 4.8 | 4.8 | 0.00 | 0.00 | 0.00 | 66 | 1013.0 |
| 20260906071304 | 27 | 38 | 4.8 | 4.8 | 0.00 | 0.00 | 0.00 | 66 | 1013.0 |
| 20260906070804 | 27 | 47 | 3.2 | 4.8 | 0.00 | 0.00 | 0.00 | 66 | 1013.0 |
| 20260906070304 | 27 | 50 | 4.8 | 8.0 | 0.00 | 0.00 | 0.00 | 67 | 1013.0 |
| 20260906065804 | 27 | 44 | 3.2 | 8.0 | 0.00 | 0.00 | 0.00 | 67 | 1013.1 |
| 20260906065305 | 26 | 39 | 4.8 | 8.0 | 0.00 | 0.00 | 0.00 | 67 | 1013.1 |
| 20260906064804 | 26 | 36 | 4.8 | 8.0 | 0.00 | 0.00 | 0.00 | 68 | 1013.2 |
| 20260906064304 | 26 | 46 | 3.2 | 8.0 | 0.00 | 0.00 | 0.00 | 69 | 1013.2 |
| 20260906063804 | 26 | 32 | 3.2 | 4.8 | 0.00 | 0.00 | 0.00 | 69 | 1013.2 |
| 20260906063304 | 26 | 32 | 3.2 | 4.8 | 0.00 | 0.00 | 0.00 | 69 | 1013.3 |
| 20260906062803 | 26 | 33 | 3.2 | 4.8 | 0.00 | 0.00 | 0.00 | 69 | 1013.3 |
| 20260906062306 | 26 | 39 | 3.2 | 4.8 | 0.00 | 0.00 | 0.00 | 69 | 1013.4 |
| 20260906061804 | 26 | 29 | 3.2 | 3.2 | 0.00 | 0.00 | 0.00 | 68 | 1013.5 |
| 20260906061304 | 27 | 49 | 1.6 | 3.2 | 0.00 | 0.00 | 0.00 | 67 | 1013.5 |
| 20260906060803 | 27 | 65 | 0.0 | 3.2 | 0.00 | 0.00 | 0.00 | 66 | 1013.5 |
| 20260906060304 | 27 | 38 | 1.6 | 3.2 | 0.00 | 0.00 | 0.00 | 65 | 1013.6 |
| 20260906055804 | 27 | 24 | 1.6 | 4.8 | 0.00 | 0.00 | 0.00 | 64 | 1013.6 |
| 20260906055306 | 27 | 43 | 1.6 | 4.8 | 0.00 | 0.00 | 0.00 | 64 | 1013.6 |
| 20260906054804 | 27 | 36 | 3.2 | 4.8 | 0.00 | 0.00 | 0.00 | 63 | 1013.6 |
| 20260906054304 | 28 | 37 | 3.2 | 4.8 | 0.00 | 0.00 | 0.00 | 63 | 1013.6 |
| 20260906053804 | 28 | 39 | 3.2 | 4.8 | 0.00 | 0.00 | 0.00 | 63 | 1013.6 |
| 20260906053304 | 28 | 35 | 3.2 | 4.8 | 0.00 | 0.00 | 0.00 | 63 | 1013.6 |
| 20260906052804 | 28 | 42 | 3.2 | 4.8 | 0.00 | 0.00 | 0.00 | 63 | 1013.6 |
| 20260906051804 | 28 | 43 | 3.2 | 4.8 | 0.00 | 0.00 | 0.00 | 63 | 1013.6 |
| 20260906051304 | 28 | 44 | 3.2 | 4.8 | 0.00 | 0.00 | 0.00 | 63 | 1013.6 |
| 20260906045804 | 28 | 36 | 3.2 | 8.0 | 0.00 | 0.00 | 0.00 | 62 | 1013.5 |
| 20260906045306 | 28 | 45 | 3.2 | 3.2 | 0.00 | 0.00 | 0.00 | 62 | 1013.5 |
| 20260906044804 | 28 | 46 | 3.2 | 4.8 | 0.00 | 0.00 | 0.00 | 62 | 1013.5 |
| 20260906044304 | 28 | 40 | 3.2 | 4.8 | 0.00 | 0.00 | 0.00 | 62 | 1013.4 |
| 20260906043305 | 28 | 40 | 4.8 | 4.8 | 0.00 | 0.00 | 0.00 | 62 | 1013.5 |
| 20260906042804 | 28 | 28 | 3.2 | 4.8 | 0.00 | 0.00 | 0.00 | 61 | 1013.5 |
| 20260906042306 | 28 | 54 | 3.2 | 4.8 | 0.00 | 0.00 | 0.00 | 61 | 1013.5 |
| 20260906041803 | 28 | 46 | 3.2 | 4.8 | 0.00 | 0.00 | 0.00 | 60 | 1013.5 |
| 20260906041304 | 28 | 39 | 3.2 | 4.8 | 0.00 | 0.00 | 0.00 | 60 | 1013.5 |
| 20260906040804 | 28 | 47 | 3.2 | 4.8 | 0.00 | 0.00 | 0.00 | 60 | 1013.5 |
| 20260906040303 | 29 | 46 | 3.2 | 4.8 | 0.00 | 0.00 | 0.00 | 60 | 1013.5 |
| 20260906035803 | 29 | 47 | 3.2 | 4.8 | 0.00 | 0.00 | 0.00 | 59 | 1013.6 |
| 20260906034803 | 29 | 42 | 3.2 | 8.0 | 0.00 | 0.00 | 0.00 | 58 | 1013.5 |
| 20260906034304 | 29 | 49 | 3.2 | 8.0 | 0.00 | 0.00 | 0.00 | 58 | 1013.4 |
| 20260906033803 | 29 | 50 | 4.8 | 4.8 | 0.00 | 0.00 | 0.00 | 57 | 1013.4 |
| 20260906033304 | 30 | 48 | 4.8 | 4.8 | 0.00 | 0.00 | 0.00 | 56 | 1013.4 |
| 20260906032804 | 30 | 52 | 3.2 | 8.0 | 0.00 | 0.00 | 0.00 | 55 | 1013.3 |
| 20260906032306 | 30 | 56 | 4.8 | 8.0 | 0.00 | 0.00 | 0.00 | 55 | 1013.2 |
| 20260906031804 | 30 | 59 | 3.2 | 8.0 | 0.00 | 0.00 | 0.00 | 54 | 1013.2 |
| 20260906031304 | 30 | 55 | 3.2 | 8.0 | 0.00 | 0.00 | 0.00 | 53 | 1013.1 |
| 20260906030804 | 29 | 61 | 3.2 | 8.0 | 0.00 | 0.00 | 0.00 | 53 | 1013.0 |
| 20260906030304 | 29 | 47 | 4.8 | 9.7 | 0.00 | 0.00 | 0.00 | 54 | 1012.9 |
| 20260906025804 | 29 | 47 | 4.8 | 8.0 | 0.00 | 0.00 | 0.00 | 55 | 1012.8 |
| 20260906025306 | 29 | 29 | 3.2 | 4.8 | 0.00 | 0.00 | 0.00 | 53 | 1012.7 |
| 20260906024804 | 29 | 34 | 3.2 | 4.8 | 0.00 | 0.00 | 0.00 | 54 | 1012.6 |
| 20260906024303 | 29 | 41 | 3.2 | 4.8 | 0.00 | 0.00 | 0.00 | 54 | 1012.6 |
| 20260906023804 | 29 | 34 | 3.2 | 4.8 | 0.00 | 0.00 | 0.00 | 54 | 1012.6 |
| 20260906023303 | 29 | 33 | 3.2 | 4.8 | 0.00 | 0.00 | 0.00 | 55 | 1012.5 |
| 20260906022803 | 29 | 43 | 3.2 | 3.2 | 0.00 | 0.00 | 0.00 | 56 | 1012.5 |
| 20260906022307 | 29 | 36 | 3.2 | 3.2 | 0.00 | 0.00 | 0.00 | 57 | 1012.5 |
| 20260906021304 | 29 | 31 | 4.8 | 4.8 | 0.00 | 0.00 | 0.00 | 55 | 1012.3 |
| 20260906020803 | 29 | 32 | 4.8 | 4.8 | 0.00 | 0.00 | 0.00 | 56 | 1012.1 |
| 20260906020303 | 29 | 41 | 4.8 | 4.8 | 0.00 | 0.00 | 0.00 | 58 | 1012.1 |
| 20260906015804 | 29 | 33 | 3.2 | 4.8 | 0.00 | 0.00 | 0.00 | 59 | 1012.0 |
| 20260906015306 | 29 | 29 | 3.2 | 4.8 | 0.00 | 0.00 | 0.00 | 58 | 1012.0 |
| 20260906014304 | 29 | 32 | 4.8 | 8.0 | 0.00 | 0.00 | 0.00 | 58 | 1011.9 |
| 20260906013804 | 29 | 40 | 3.2 | 8.0 | 0.00 | 0.00 | 0.00 | 57 | 1011.9 |
| 20260906013304 | 29 | 33 | 3.2 | 8.0 | 0.00 | 0.00 | 0.00 | 58 | 1011.8 |
| 20260906012306 | 30 | 30 | 4.8 | 4.8 | 0.00 | 0.00 | 0.00 | 58 | 1011.6 |
| 20260906011804 | 30 | 28 | 3.2 | 4.8 | 0.00 | 0.00 | 0.00 | 58 | 1011.6 |
| 20260906010804 | 31 | 34 | 1.6 | 3.2 | 0.00 | 0.00 | 0.00 | 55 | 1011.6 |
| 20260906004804 | 32 | 22 | 1.6 | 3.2 | 0.00 | 0.00 | 0.00 | 51 | 1011.5 |
| 20260906004304 | 33 | 31 | 1.6 | 3.2 | 0.00 | 0.00 | 0.00 | 49 | 1011.5 |
| 20260906003803 | 34 | 27 | 3.2 | 3.2 | 0.00 | 0.00 | 0.00 | 48 | 1011.6 |
| 20260906003303 | 35 | 28 | 1.6 | 3.2 | 0.00 | 0.00 | 0.00 | 44 | 1011.6 |
| 20260906002804 | 35 | 39 | 0.0 | 3.2 | 0.00 | 0.00 | 0.00 | 42 | 1011.5 |
| 20260906002306 | 36 | 56 | 1.6 | 3.2 | 0.00 | 0.00 | 0.00 | 41 | 1011.6 |
| 20260906001803 | 36 | 43 | 3.2 | 4.8 | 0.00 | 0.00 | 0.00 | 40 | 1011.7 |
| 20260906001304 | 37 | 62 | 1.6 | 3.2 | 0.00 | 0.00 | 0.00 | 39 | 1011.6 |
| 20260906000804 | 37 | 108 | 1.6 | 4.8 | 0.00 | 0.00 | 0.00 | 37 | 1011.6 |
| 20260906000304 | 38 | 130 | 3.2 | 4.8 | 0.00 | 0.00 | 0.00 | 36 | 1011.6 |
| 20260905235306 | 38 | 147 | 0.0 | 4.8 | 0.00 | 0.00 | 0.00 | 35 | 1011.7 |
| 20260905234303 | 38 | 108 | 1.6 | 8.0 | 0.00 | 0.00 | 0.00 | 35 | 1011.6 |
| 20260905233804 | 38 | 120 | 3.2 | 8.0 | 0.00 | 0.00 | 0.00 | 34 | 1011.6 |
| 20260905233303 | 38 | 106 | 4.8 | 8.0 | 0.00 | 0.00 | 0.00 | 34 | 1011.6 |
| 20260905232803 | 38 | 122 | 4.8 | 9.7 | 0.00 | 0.00 | 0.00 | 34 | 1011.6 |
| 20260905232306 | 38 | 105 | 1.6 | 4.8 | 0.00 | 0.00 | 0.00 | 34 | 1011.6 |
| 20260905231803 | 38 | 178 | 3.2 | 8.0 | 0.00 | 0.00 | 0.00 | 34 | 1011.6 |
| 20260905231303 | 38 | 144 | 3.2 | 11.3 | 0.00 | 0.00 | 0.00 | 33 | 1011.6 |
| 20260905230304 | 38 | 126 | 1.6 | 8.0 | 0.00 | 0.00 | 0.00 | 34 | 1011.6 |
| 20260905225804 | 38 | 174 | 8.0 | 12.9 | 0.00 | 0.00 | 0.00 | 34 | 1011.6 |
| 20260905225306 | 38 | 35 | 3.2 | 8.0 | 0.00 | 0.00 | 0.00 | 34 | 1011.6 |
| 20260905224804 | 38 | 142 | 4.8 | 9.7 | 0.00 | 0.00 | 0.00 | 35 | 1011.5 |
| 20260905224303 | 38 | 114 | 6.4 | 11.3 | 0.00 | 0.00 | 0.00 | 34 | 1011.4 |
| 20260905223804 | 38 | 113 | 3.2 | 8.0 | 0.00 | 0.00 | 0.00 | 35 | 1011.4 |
| 20260905223304 | 39 | 188 | 8.0 | 11.3 | 0.00 | 0.00 | 0.00 | 34 | 1011.5 |
| 20260905222306 | 39 | 207 | 4.8 | 9.7 | 0.00 | 0.00 | 0.00 | 34 | 1011.5 |
| 20260905221804 | 40 | 77 | 4.8 | 8.0 | 0.00 | 0.00 | 0.00 | 33 | 1011.5 |
| 20260905221304 | 39 | 225 | 3.2 | 8.0 | 0.00 | 0.00 | 0.00 | 33 | 1011.5 |
| 20260905220804 | 39 | 264 | 3.2 | 12.9 | 0.00 | 0.00 | 0.00 | 34 | 1011.6 |
| 20260905220303 | 39 | 295 | 3.2 | 8.0 | 0.00 | 0.00 | 0.00 | 34 | 1011.6 |
| 20260905215804 | 39 | 221 | 8.0 | 14.5 | 0.00 | 0.00 | 0.00 | 34 | 1011.6 |
| 20260905214804 | 38 | 129 | 1.6 | 11.3 | 0.00 | 0.00 | 0.00 | 34 | 1011.7 |
| 20260905214304 | 38 | 148 | 8.0 | 12.9 | 0.00 | 0.00 | 0.00 | 34 | 1011.8 |
| 20260905213304 | 38 | 113 | 6.4 | 11.3 | 0.00 | 0.00 | 0.00 | 35 | 1011.9 |
| 20260905212804 | 37 | 310 | 3.2 | 11.3 | 0.00 | 0.00 | 0.00 | 36 | 1011.9 |
| 20260905212306 | 37 | 194 | 9.7 | 14.5 | 0.00 | 0.00 | 0.00 | 36 | 1012.0 |
| 20260905211804 | 38 | 216 | 1.6 | 4.8 | 0.00 | 0.00 | 0.00 | 36 | 1012.2 |
| 20260905211303 | 38 | 137 | 1.6 | 4.8 | 0.00 | 0.00 | 0.00 | 35 | 1012.2 |
| 20260905210304 | 39 | 201 | 3.2 | 4.8 | 0.00 | 0.00 | 0.00 | 34 | 1012.3 |
| 20260905205804 | 39 | 315 | 4.8 | 8.0 | 0.00 | 0.00 | 0.00 | 34 | 1012.3 |
| 20260905205306 | 38 | 124 | 3.2 | 9.7 | 0.00 | 0.00 | 0.00 | 34 | 1012.4 |
| 20260905204804 | 38 | 172 | 3.2 | 11.3 | 0.00 | 0.00 | 0.00 | 35 | 1012.4 |
| 20260905204304 | 38 | 188 | 8.0 | 11.3 | 0.00 | 0.00 | 0.00 | 36 | 1012.4 |
| 20260905203804 | 38 | 121 | 8.0 | 14.5 | 0.00 | 0.00 | 0.00 | 36 | 1012.5 |
| 20260905203304 | 38 | 153 | 8.0 | 19.3 | 0.00 | 0.00 | 0.00 | 36 | 1012.5 |
| 20260905202803 | 38 | 127 | 4.8 | 16.1 | 0.00 | 0.00 | 0.00 | 35 | 1012.6 |
| 20260905202306 | 38 | 187 | 4.8 | 12.9 | 0.00 | 0.00 | 0.00 | 36 | 1012.6 |
| 20260905201804 | 38 | 61 | 8.0 | 11.3 | 0.00 | 0.00 | 0.00 | 35 | 1012.7 |
| 20260905201303 | 38 | 94 | 8.0 | 12.9 | 0.00 | 0.00 | 0.00 | 34 | 1012.8 |
| 20260905200803 | 38 | 210 | 3.2 | 9.7 | 0.00 | 0.00 | 0.00 | 36 | 1012.8 |
| 20260905200303 | 38 | 249 | 3.2 | 11.3 | 0.00 | 0.00 | 0.00 | 36 | 1012.9 |
| 20260905195803 | 38 | 176 | 3.2 | 11.3 | 0.00 | 0.00 | 0.00 | 35 | 1012.9 |
| 20260905195306 | 38 | 61 | 3.2 | 8.0 | 0.00 | 0.00 | 0.00 | 35 | 1013.0 |
| 20260905194304 | 38 | 328 | 6.4 | 12.9 | 0.00 | 0.00 | 0.00 | 36 | 1013.0 |
| 20260905193803 | 38 | 212 | 8.0 | 16.1 | 0.00 | 0.00 | 0.00 | 35 | 1013.1 |
| 20260905193303 | 38 | 214 | 6.4 | 14.5 | 0.00 | 0.00 | 0.00 | 36 | 1013.1 |
| 20260905192803 | 38 | 249 | 4.8 | 11.3 | 0.00 | 0.00 | 0.00 | 36 | 1013.1 |
| 20260905192306 | 38 | 200 | 8.0 | 14.5 | 0.00 | 0.00 | 0.00 | 36 | 1013.2 |
| 20260905191803 | 38 | 219 | 6.4 | 14.5 | 0.00 | 0.00 | 0.00 | 38 | 1013.3 |
| 20260905191304 | 38 | 213 | 4.8 | 14.5 | 0.00 | 0.00 | 0.00 | 38 | 1013.3 |
| 20260905190804 | 38 | 43 | 3.2 | 8.0 | 0.00 | 0.00 | 0.00 | 36 | 1013.5 |
| 20260905190304 | 38 | 169 | 3.2 | 11.3 | 0.00 | 0.00 | 0.00 | 36 | 1013.5 |
| 20260905185804 | 38 | 206 | 3.2 | 9.7 | 0.00 | 0.00 | 0.00 | 36 | 1013.6 |
| 20260905185306 | 37 | 128 | 3.2 | 11.3 | 0.00 | 0.00 | 0.00 | 38 | 1013.7 |
| 20260905184804 | 37 | 155 | 6.4 | 12.9 | 0.00 | 0.00 | 0.00 | 38 | 1013.7 |
| 20260905184304 | 36 | 233 | 4.8 | 11.3 | 0.00 | 0.00 | 0.00 | 40 | 1013.8 |
| 20260905183304 | 36 | 294 | 4.8 | 9.7 | 0.00 | 0.00 | 0.00 | 42 | 1014.0 |
| 20260905182803 | 36 | 256 | 4.8 | 9.7 | 0.00 | 0.00 | 0.00 | 43 | 1014.1 |